Location: Pinon Hills
(34.4429°N, 117.6403°W)
Time: 22:24:25
(UTC-07:00)

Amateur Radio Satellites - All Passes

Search period start: 30 March 2015 21:54
Search period end: 31 March 2015 21:54
Location: Pinon Hills, 34.4429°N, 117.6403°W

Satellite Date Start Highest point End Downlink Frequencies (MHz)
Time Altitude Azimuth
Oscar 11 30 Mar 21:58:43 22:03:00 68° 259° (W) 22:07:19 145.826/435.025
50 SAT 30 Mar 21:58:57 22:01:14 16° 70° (ENE) 22:03:43 437.505
DANDE 30 Mar 22:08:27 22:09:10 10° 284° (WNW) 22:09:42 436.750
FUNcube-1 30 Mar 22:12:35 22:16:43 83° 78° (ENE) 22:20:53 145.935
ISS 30 Mar 22:17:35 22:20:47 54° 320° (NW) 22:24:00 145.825
UWE-3 30 Mar 22:21:09 22:25:14 58° 260° (W) 22:29:21 435.000/436.395/437.385
CUBEBUG 1 30 Mar 22:25:41 22:28:13 16° 69° (ENE) 22:30:57 437.445
ZACube-1 30 Mar 22:26:08 22:30:14 64° 259° (W) 22:34:22 437.345
DELFI C3 30 Mar 22:27:27 22:31:15 37° 263° (W) 22:35:02 145.870
VELOX 1 30 Mar 22:28:37 22:32:43 39° 73° (ENE) 22:36:53 145.980
CINEMA 3 30 Mar 22:29:33 22:32:38 19° 266° (W) 22:35:35 145.822/145.860
CUBEBUG 2 30 Mar 22:29:53 22:33:43 36° 262° (W) 22:37:33 437.445
AISAT 30 Mar 22:33:51 22:38:07 47° 74° (ENE) 22:42:23 437.250
UNISAT 6 30 Mar 22:42:40 22:46:26 25° 95° (E) 22:50:21 437.425
RS-15 30 Mar 22:45:16 22:50:51 14° 341° (NNW) 22:56:06 29.354- 29.394
TIGRISAT 30 Mar 22:51:55 22:55:59 31° 97° (E) 23:00:09 435.000
QB50P1 30 Mar 23:02:15 23:05:12 19° 94° (E) 23:08:17 145.935-145.965
DUCHIFAT 1 30 Mar 23:03:10 23:06:05 19° 94° (E) 23:09:09 145.980
HUMSAT D 30 Mar 23:04:30 23:08:25 44° 261° (W) 23:12:22 437.325/437.525
UKube-1 30 Mar 23:06:21 23:10:10 29° 263° (W) 23:13:57 .
ESTCUBE 1 30 Mar 23:08:34 23:13:01 56° 75° (ENE) 23:17:30 437.505/2401.250
QB50P2 30 Mar 23:17:04 23:20:45 29° 96° (E) 23:24:30 145.880/145.840
DX 1 30 Mar 23:19:23 23:22:42 20° 266° (W) 23:25:52 434.975-435.025
ANTELSAT 30 Mar 23:22:39 23:27:17 74° 101° (E) 23:31:58 437.575/2403.000
YUBILEINY 30 Mar 23:32:03 23:37:25 18° 65° (ENE) 23:43:17 435.215
50 SAT 30 Mar 23:32:29 23:35:56 30° 263° (W) 23:39:24 437.505
BUGSAT 1 30 Mar 23:35:57 23:39:34 32° 97° (E) 23:43:12 437.445
PCSat 30 Mar 23:39:06 23:44:13 42° 58° (ENE) 23:49:21 145.827
POPSAT HIP 1 30 Mar 23:45:04 23:49:16 64° 101° (E) 23:53:29 437.405
TISAT 1 30 Mar 23:46:54 23:50:22 26° 72° (ENE) 23:53:55 437.305
NANOSAT C BR1 30 Mar 23:54:57 23:59:12 86° 102° (ESE) 00:03:26 145.865
CUBEBUG 1 31 Mar 00:00:10 00:04:19 39° 262° (W) 00:08:26 437.445
POLYITAN 1 31 Mar 00:00:43 00:04:58 79° 283° (WNW) 00:09:13 437.675
SPROUT 31 Mar 00:02:40 00:06:48 48° 75° (ENE) 00:10:57 437.525
VELOX 1 31 Mar 00:06:48 00:09:30 15° 268° (W) 00:12:01 145.980
AISAT 31 Mar 00:12:58 00:15:01 13° 269° (W) 00:16:50 437.250
UNISAT 6 31 Mar 00:19:18 00:23:10 26° 289° (WNW) 00:27:00 437.425
TIGRISAT 31 Mar 00:29:02 00:32:35 22° 289° (WNW) 00:36:03 435.000
ITUPSAT 1 31 Mar 00:33:56 00:36:21 14° 67° (ENE) 00:39:00 437.325
QB50P1 31 Mar 00:37:27 00:41:07 29° 288° (WNW) 00:44:45 145.935-145.965
DUCHIFAT 1 31 Mar 00:38:19 00:41:58 29° 288° (WNW) 00:45:35 145.980
ESTCUBE 1 31 Mar 00:48:57 00:50:19 11° 270° (W) 00:51:23 437.505/2401.250
QB50P2 31 Mar 00:53:26 00:56:30 19° 290° (WNW) 00:59:27 145.880/145.840
RS-15 31 Mar 01:05:10 01:10:12 14° 18° (NNE) 01:15:45 29.354- 29.394
BUGSAT 1 31 Mar 01:12:20 01:14:50 16° 290° (WNW) 01:17:11 437.445
SWISSCUBE 31 Mar 01:18:35 01:23:10 48° 74° (ENE) 01:27:49 437.505
BEESAT 31 Mar 01:21:16 01:25:50 47° 73° (ENE) 01:30:27 436.000
TISAT 1 31 Mar 01:22:56 01:26:10 21° 265° (W) 01:29:18 437.305
PCSat 31 Mar 01:23:14 01:27:24 22° 253° (WSW) 01:31:23 145.827
YUBILEINY 31 Mar 01:26:37 01:35:28 81° 265° (W) 01:44:11 435.215
Oscar 19 31 Mar 01:39:15 01:43:45 30° 96° (E) 01:48:20 437.125/150
SPROUT 31 Mar 01:41:46 01:43:14 11° 270° (W) 01:44:25 437.525
ITUPSAT 1 31 Mar 02:09:09 02:13:51 53° 260° (W) 02:18:34 437.325
Gurwin Techsat 1B 31 Mar 02:10:00 02:12:36 14° 90° (E) 02:15:30 435.225
O/OREOS (USA 219) 31 Mar 02:35:27 02:36:37 11° 100° (E) 02:38:06 437.305
KKS-1 31 Mar 02:38:05 02:42:24 55° 75° (ENE) 02:46:46 437.445
ITAMSAT 1 31 Mar 02:48:22 02:53:18 44° 99° (E) 02:58:14 435.822/435.867
SO-50 31 Mar 02:52:34 02:56:19 22° 49° (NE) 03:00:09 436.795
SWISSCUBE 31 Mar 02:58:36 03:01:21 15° 269° (W) 03:03:52 437.505
BEESAT 31 Mar 03:01:10 03:03:59 15° 268° (W) 03:06:33 436.000
STARS 31 Mar 03:05:47 03:10:08 73° 76° (ENE) 03:14:30 437.465
HORYU 2 31 Mar 03:12:37 03:13:35 11° 90° (E) 03:14:51 437.375
RS-15 31 Mar 03:16:26 03:27:05 42° 48° (NE) 03:38:19 29.354- 29.394
Oscar 19 31 Mar 03:18:40 03:23:02 27° 290° (WNW) 03:27:17 437.125/150
YUBILEINY 31 Mar 03:27:46 03:31:07 12° 280° (W) 03:33:41 435.215
AO-7 31 Mar 03:41:45 03:47:31 21° 93° (E) 03:53:42 29.400- 29.500
JAS-2 31 Mar 03:45:56 03:50:51 19° 87° (E) 03:55:51 435.910
Gurwin Techsat 1B 31 Mar 03:47:49 03:53:02 58° 286° (WNW) 03:58:13 435.225
AIST 1 31 Mar 03:52:28 03:56:43 51° 94° (E) 04:01:00
O/OREOS (USA 219) 31 Mar 04:11:07 04:15:37 55° 292° (WNW) 04:20:09 437.305
VERMONT LUNAR 31 Mar 04:12:57 04:16:11 48° 151° (SSE) 04:19:26 437.305
KKS-1 31 Mar 04:18:26 04:19:28 10° 270° (W) 04:20:11 437.445
MOZHAYETS 4 31 Mar 04:26:13 04:30:34 43° 74° (ENE) 04:34:59
ITAMSAT 1 31 Mar 04:28:52 04:32:31 19° 293° (WNW) 04:35:58 435.822/435.867
AUBIESAT-1 31 Mar 04:31:43 04:34:42 20° 64° (ENE) 04:37:56 437.475
SO-50 31 Mar 04:32:24 04:37:06 43° 246° (WSW) 04:41:41 436.795
HORYU 2 31 Mar 04:46:14 04:50:39 56° 285° (WNW) 04:55:04 437.375
ISS 31 Mar 04:48:04 04:50:58 29° 36° (NE) 04:53:51 145.825
M-CUBED/EXP-1 PRIME 31 Mar 04:56:51 05:00:38 44° 69° (ENE) 05:04:48 437.505
PHONESAT 2.4 31 Mar 05:09:00 05:12:26 55° 152° (SSE) 05:15:54 2401.200-2431.200
RS-15 31 Mar 05:28:42 05:39:57 56° 248° (WSW) 05:51:30 29.354- 29.394
JAS-2 31 Mar 05:29:05 05:36:42 69° 286° (WNW) 05:43:33 435.910
AO-7 31 Mar 05:32:48 05:41:02 70° 290° (WNW) 05:49:15 29.400- 29.500
AIST 1 31 Mar 05:33:26 05:34:47 11° 290° (WNW) 05:35:51
GONETS M04 31 Mar 05:44:50 05:52:16 31° 72° (ENE) 05:59:55
VERMONT LUNAR 31 Mar 05:50:47 05:53:56 38° 346° (NNW) 05:57:06 437.305
MOZHAYETS 4 31 Mar 06:05:20 06:08:04 15° 269° (W) 06:10:34
AUBIESAT-1 31 Mar 06:05:50 06:09:20 29° 261° (W) 06:13:03 437.475
STRAND 1 31 Mar 06:15:21 06:19:36 28° 70° (ENE) 06:23:58 437.568
PRISM 31 Mar 06:18:15 06:22:10 40° 74° (ENE) 06:26:09 437.425
CUBESAT XI-V 31 Mar 06:18:30 06:23:04 52° 74° (ENE) 06:27:40 437.345
ISS 31 Mar 06:24:47 06:27:14 20° 230° (SW) 06:29:37 145.825
M-CUBED/EXP-1 PRIME 31 Mar 06:34:12 06:35:57 12° 267° (W) 06:37:31 437.505
PHONESAT 2.4 31 Mar 06:47:32 06:50:52 39° 347° (NNW) 06:54:13 2401.200-2431.200
CUTE-I 31 Mar 07:02:53 07:08:11 68° 101° (ESE) 07:13:28 437.470
Cubesat XI-IV 31 Mar 07:03:40 07:08:59 70° 102° (ESE) 07:14:17 437.490
DANDE 31 Mar 07:04:44 07:07:35 16° 77° (ENE) 07:11:10 436.750
JAS-2 31 Mar 07:17:52 07:20:24 11° 303° (WNW) 07:22:21 435.910
AO-7 31 Mar 07:29:03 07:32:35 13° 306° (NW) 07:35:34 29.400- 29.500
VERMONT LUNAR 31 Mar 07:29:10 07:32:06 27° 3° (N) 07:35:02 437.305
GONETS M04 31 Mar 07:41:00 07:49:28 51° 269° (W) 07:57:51
CUSAT 1 31 Mar 07:44:09 07:48:51 59° 81° (E) 07:55:08 437.405
STRAND 1 31 Mar 07:54:14 07:58:44 29° 264° (W) 08:03:10 437.568
PRISM 31 Mar 07:55:40 07:57:53 13° 268° (W) 07:59:53 437.425
CUBESAT XI-V 31 Mar 07:58:40 08:00:53 13° 270° (W) 08:02:48 437.345
PHONESAT 2.4 31 Mar 08:26:33 08:29:41 30° 4° (N) 08:32:52 2401.200-2431.200
CANX-2 31 Mar 08:39:33 08:42:25 18° 93° (E) 08:45:25 2200.000
CUTE-I 31 Mar 08:45:11 08:47:45 13° 295° (WNW) 08:50:02 437.470
Cubesat XI-IV 31 Mar 08:46:06 08:48:34 13° 295° (WNW) 08:50:43 437.490
DANDE 31 Mar 08:46:26 08:50:46 43° 263° (W) 08:56:28 436.750
BEESAT 2 31 Mar 08:47:50 08:49:56 14° 110° (ESE) 08:52:13 435.950
CUTE 1.7 + AOD 2 31 Mar 08:52:44 08:56:07 23° 94° (E) 08:59:36 437.475
HO-68 31 Mar 09:01:39 09:08:18 40° 98° (E) 09:14:59 435.675
VERMONT LUNAR 31 Mar 09:06:51 09:10:10 57° 19° (NNE) 09:13:28 437.305
AAUSAT CUBESAT 2 31 Mar 09:09:27 09:12:33 20° 94° (E) 09:15:46 437.432
BRITE-PL 31 Mar 09:10:02 09:14:18 76° 101° (ESE) 09:18:49 437.365/2234.400
SEEDS 31 Mar 09:18:24 09:22:23 38° 97° (E) 09:26:24 437.485
BEESAT 3 31 Mar 09:20:29 09:24:19 42° 115° (ESE) 09:28:15 437.485
DOVE 4 31 Mar 09:24:51 09:29:05 45° 99° (E) 09:33:36 437.250
CUSAT 1 31 Mar 09:28:59 09:31:44 14° 265° (W) 09:34:25 437.405
COMPASS 1 31 Mar 09:37:29 09:41:39 53° 99° (E) 09:45:49 437.405
UNISAT 6 31 Mar 09:39:59 09:42:08 14° 68° (ENE) 09:44:28 437.425
GOMX 1 31 Mar 09:46:04 09:50:23 65° 284° (WNW) 09:54:57 467.674
TIGRISAT 31 Mar 09:48:38 09:51:19 17° 69° (ENE) 09:54:11 435.000
Oscar 11 31 Mar 09:50:04 09:53:48 28° 96° (E) 09:57:35 145.826/435.025
PHONESAT 2.4 31 Mar 10:04:53 10:08:23 64° 20° (NNE) 10:11:55 2401.200-2431.200
FUNcube-1 31 Mar 10:05:03 10:08:23 21° 94° (E) 10:11:53 145.935
QB50P2 31 Mar 10:08:02 10:10:19 15° 69° (ENE) 10:12:48 145.880/145.840
AIST 2 31 Mar 10:10:08 10:14:07 41° 114° (ESE) 10:18:10 435.215
DELFI C3 31 Mar 10:10:38 10:14:26 36° 97° (E) 10:18:14 145.870
UWE-3 31 Mar 10:14:23 10:18:28 35° 97° (E) 10:22:41 435.000/436.395/437.385
CANX-2 31 Mar 10:14:35 10:18:27 32° 287° (WNW) 10:22:14 2200.000
ZACube-1 31 Mar 10:18:18 10:22:13 31° 97° (E) 10:26:15 437.345
ANTELSAT 31 Mar 10:18:39 10:22:36 39° 74° (ENE) 10:26:40 437.575/2403.000
CUBEBUG 2 31 Mar 10:23:39 10:28:05 57° 100° (E) 10:32:38 437.445
BEESAT 2 31 Mar 10:23:53 10:27:46 40° 303° (WNW) 10:31:42 435.950
BUGSAT 1 31 Mar 10:23:56 10:26:17 15° 70° (ENE) 10:28:48 437.445
CINEMA 3 31 Mar 10:25:56 10:30:24 70° 283° (WNW) 10:35:04 145.822/145.860
CUTE 1.7 + AOD 2 31 Mar 10:28:27 10:32:01 25° 288° (WNW) 10:35:28 437.475
AISAT 31 Mar 10:30:28 10:31:58 12° 91° (E) 10:33:43 437.250
POPSAT HIP 1 31 Mar 10:34:50 10:38:28 30° 72° (ENE) 10:42:11 437.405
NANOSAT C BR1 31 Mar 10:44:14 10:48:08 38° 74° (ENE) 10:52:04 145.865
AAUSAT CUBESAT 2 31 Mar 10:44:36 10:48:12 27° 288° (WNW) 10:51:42 437.432
VERMONT LUNAR 31 Mar 10:44:52 10:47:43 26° 213° (SSW) 10:50:33 437.305
HO-68 31 Mar 10:49:33 10:55:55 34° 293° (WNW) 11:02:09 435.675
POLYITAN 1 31 Mar 10:50:20 10:54:22 47° 75° (ENE) 10:58:26 437.675
HUMSAT D 31 Mar 10:52:06 10:56:02 36° 97° (E) 11:00:02 437.325/437.525
SEEDS 31 Mar 10:55:22 10:57:55 15° 291° (WNW) 11:00:18 437.485
UKube-1 31 Mar 10:56:54 11:01:10 58° 100° (E) 11:05:26 .
BEESAT 3 31 Mar 11:00:02 11:02:37 16° 311° (NW) 11:05:06 437.485
DOVE 4 31 Mar 11:04:12 11:06:38 14° 290° (WNW) 11:08:53 437.250
ESTCUBE 1 31 Mar 11:06:21 11:08:57 16° 92° (E) 11:11:46 437.505/2401.250
DX 1 31 Mar 11:09:59 11:14:20 90° 296° (WNW) 11:18:40 434.975-435.025
50 SAT 31 Mar 11:13:20 11:17:09 40° 98° (E) 11:21:00 437.505
UNISAT 6 31 Mar 11:14:34 11:18:36 41° 262° (W) 11:22:41 437.425
COMPASS 1 31 Mar 11:15:38 11:16:57 11° 292° (WNW) 11:18:00 437.405
TIGRISAT 31 Mar 11:24:01 11:27:52 33° 263° (W) 11:31:43 435.000
QB50P1 31 Mar 11:26:06 11:30:16 61° 259° (W) 11:34:26 145.935-145.965
Oscar 11 31 Mar 11:26:31 11:29:51 21° 289° (WNW) 11:33:03 145.826/435.025
DUCHIFAT 1 31 Mar 11:26:39 11:30:49 62° 259° (W) 11:35:00 145.980
FUNcube-1 31 Mar 11:40:53 11:44:44 29° 287° (WNW) 11:48:33 145.935
QB50P2 31 Mar 11:42:01 11:45:57 38° 262° (W) 11:49:53 145.880/145.840
PHONESAT 2.4 31 Mar 11:43:38 11:46:33 24° 214° (SW) 11:49:27 2401.200-2431.200
DELFI C3 31 Mar 11:47:00 11:49:20 14° 291° (WNW) 11:51:29 145.870
AIST 2 31 Mar 11:50:02 11:52:57 17° 311° (NW) 11:55:44 435.215
UWE-3 31 Mar 11:51:41 11:54:47 18° 290° (WNW) 11:57:48 435.000/436.395/437.385
CUBEBUG 1 31 Mar 11:52:29 11:56:40 47° 99° (E) 12:00:50 437.445
ZACube-1 31 Mar 11:55:07 11:58:25 20° 289° (WNW) 12:01:38 437.345
SPROUT 31 Mar 11:55:23 11:56:32 11° 90° (E) 11:57:56 437.525
ANTELSAT 31 Mar 11:57:24 11:59:40 14° 269° (W) 12:01:44 437.575/2403.000
BUGSAT 1 31 Mar 11:57:41 12:01:32 35° 262° (W) 12:05:19 437.445
VELOX 1 31 Mar 11:58:54 12:03:15 60° 285° (WNW) 12:07:34 145.980
CUBEBUG 2 31 Mar 12:02:37 12:04:24 12° 292° (WNW) 12:05:57 437.445
AISAT 31 Mar 12:04:39 12:08:55 49° 286° (WNW) 12:13:09 437.250
POPSAT HIP 1 31 Mar 12:11:28 12:14:27 18° 267° (W) 12:17:16 437.405
NANOSAT C BR1 31 Mar 12:21:56 12:24:12 14° 268° (W) 12:26:16 145.865
YUBILEINY 31 Mar 12:28:45 12:35:03 24° 84° (E) 12:41:45 435.215
HUMSAT D 31 Mar 12:28:50 12:31:34 16° 290° (WNW) 12:34:08 437.325/437.525
POLYITAN 1 31 Mar 12:29:13 12:30:37 11° 269° (W) 12:31:44 437.675
UKube-1 31 Mar 12:35:53 12:36:53 11° 294° (WNW) 12:37:37 .
ESTCUBE 1 31 Mar 12:41:50 12:46:03 39° 287° (WNW) 12:50:12 437.505/2401.250
O/OREOS (USA 219) 31 Mar 12:47:18 12:49:22 13° 56° (ENE) 12:51:39 437.305
50 SAT 31 Mar 12:49:47 12:51:45 13° 291° (WNW) 12:53:31 437.505
Oscar 19 31 Mar 12:52:49 12:57:13 31° 71° (ENE) 13:01:42 437.125/150
TISAT 1 31 Mar 13:09:55 13:14:07 80° 102° (ESE) 13:18:19 437.305
SWISSCUBE 31 Mar 13:23:50 13:26:45 16° 92° (E) 13:29:50 437.505
BEESAT 31 Mar 13:26:28 13:29:16 16° 92° (E) 13:32:18 436.000
Gurwin Techsat 1B 31 Mar 13:27:41 13:30:55 17° 67° (ENE) 13:34:23 435.225
SPROUT 31 Mar 13:28:49 13:32:58 49° 285° (WNW) 13:37:05 437.525
CUBEBUG 1 31 Mar 13:30:42 13:32:40 13° 292° (WNW) 13:34:25 437.445
JUGNU 31 Mar 13:36:04 13:39:52 17° 173° (S) 13:43:43 437.505
ITAMSAT 1 31 Mar 14:02:46 14:07:45 47° 73° (ENE) 14:12:46 435.822/435.867
ITUPSAT 1 31 Mar 14:13:23 14:18:04 53° 100° (E) 14:22:43 437.325
PCSat 31 Mar 14:16:46 14:22:10 81° 116° (ESE) 14:27:37 145.827
YUBILEINY 31 Mar 14:22:33 14:31:16 63° 280° (W) 14:40:01 435.215
O/OREOS (USA 219) 31 Mar 14:24:47 14:29:12 52° 254° (WSW) 14:33:33 437.305
Oscar 19 31 Mar 14:32:19 14:36:35 26° 265° (W) 14:40:46 437.125/150
KKS-1 31 Mar 14:34:22 14:36:40 14° 92° (E) 14:39:11 437.445
AO-7 31 Mar 14:37:33 14:43:32 24° 60° (ENE) 14:49:49 29.400- 29.500
SRMSAT 31 Mar 14:40:09 14:43:30 15° 170° (S) 14:46:55 437.500
STARS 31 Mar 15:00:16 15:03:10 18° 93° (E) 15:06:14 437.465
SWISSCUBE 31 Mar 15:00:20 15:04:51 42° 287° (WNW) 15:09:17 437.505
BEESAT 31 Mar 15:02:50 15:07:23 43° 287° (WNW) 15:11:51 436.000
Gurwin Techsat 1B 31 Mar 15:05:21 15:10:31 52° 260° (W) 15:15:43 435.225
JUGNU 31 Mar 15:24:07 15:28:15 19° 183° (S) 15:32:22 437.505
JAS-2 31 Mar 15:35:58 15:42:15 40° 69° (ENE) 15:49:15 435.910
HORYU 2 31 Mar 15:40:47 15:45:12 85° 77° (ENE) 15:49:40 437.375
AIST 1 31 Mar 15:40:49 15:45:04 60° 266° (W) 15:49:15
ITAMSAT 1 31 Mar 15:44:05 15:47:33 17° 268° (W) 15:50:47 435.822/435.867
ITUPSAT 1 31 Mar 15:52:58 15:55:34 14° 293° (WNW) 15:57:55 437.325
PCSat 31 Mar 16:03:30 16:06:20 14° 313° (NW) 16:08:55 145.827
KKS-1 31 Mar 16:09:20 16:13:33 42° 287° (WNW) 16:17:43 437.445
MOZHAYETS 4 31 Mar 16:26:37 16:28:52 14° 91° (E) 16:31:21
AO-7 31 Mar 16:27:25 16:35:42 71° 256° (WSW) 16:44:00 29.400- 29.500
SRMSAT 31 Mar 16:27:52 16:32:01 19° 180° (S) 16:36:10 437.500
STARS 31 Mar 16:35:46 16:39:45 33° 288° (WNW) 16:43:41 437.465
SO-50 31 Mar 17:05:40 17:07:35 13° 108° (ESE) 17:09:47 436.795
JUGNU 31 Mar 17:13:39 17:16:36 14° 192° (SSW) 17:19:27 437.505
JAS-2 31 Mar 17:21:07 17:27:20 35° 267° (W) 17:34:02 435.910
RS-15 31 Mar 17:37:04 17:46:10 34° 107° (ESE) 17:55:38 29.354- 29.394
BEESAT 3 31 Mar 17:45:09 17:45:57 11° 45° (NE) 17:46:58 437.485
AUBIESAT-1 31 Mar 17:50:08 17:54:21 31° 100° (E) 17:58:28 437.475
MOZHAYETS 4 31 Mar 18:01:56 18:06:25 47° 286° (WNW) 18:10:49
M-CUBED/EXP-1 PRIME 31 Mar 18:16:20 18:21:12 70° 105° (ESE) 18:25:50 437.505
SRMSAT 31 Mar 18:17:00 18:20:32 16° 190° (S) 18:24:00 437.500
CUBESAT XI-V 31 Mar 18:20:06 18:23:01 17° 92° (E) 18:26:06 437.345
CUTE-I 31 Mar 18:21:06 18:26:27 79° 77° (ENE) 18:31:51 437.470
Cubesat XI-IV 31 Mar 18:22:03 18:27:25 81° 76° (ENE) 18:32:49 437.490
STRAND 1 31 Mar 18:31:29 18:32:58 11° 89° (E) 18:34:50 437.568
AIST 2 31 Mar 18:37:11 18:38:34 12° 45° (NE) 18:40:07 435.215
GONETS M04 31 Mar 18:41:18 18:49:01 39° 88° (E) 18:56:57
SO-50 31 Mar 18:43:09 18:47:40 55° 303° (WNW) 18:52:20 436.795
BEESAT 2 31 Mar 18:46:36 18:50:27 38° 56° (NE) 18:54:17 435.950
BEESAT 3 31 Mar 19:20:28 19:24:32 70° 243° (WSW) 19:28:32 437.485
AUBIESAT-1 31 Mar 19:25:04 19:29:00 25° 295° (WNW) 19:32:44 437.475
HO-68 31 Mar 19:27:55 19:32:53 21° 62° (ENE) 19:38:07 435.675
PRISM 31 Mar 19:39:30 19:43:39 72° 284° (WNW) 19:47:45 437.425
CUTE 1.7 + AOD 2 31 Mar 19:44:36 19:45:40 11° 68° (ENE) 19:47:00 437.475
RS-15 31 Mar 19:47:18 19:58:02 59° 306° (NW) 20:08:52 29.354- 29.394
M-CUBED/EXP-1 PRIME 31 Mar 19:53:26 19:55:30 12° 299° (WNW) 19:57:17 437.505
CUBESAT XI-V 31 Mar 19:56:23 20:00:39 37° 287° (WNW) 20:04:51 437.345
STRAND 1 31 Mar 20:07:39 20:12:44 65° 285° (WNW) 20:17:45 437.568
SEEDS 31 Mar 20:08:08 20:10:54 18° 70° (ENE) 20:13:50 437.485
AIST 2 31 Mar 20:13:28 20:17:41 67° 243° (WSW) 20:21:48 435.215
DANDE 31 Mar 20:16:40 20:18:19 14° 97° (E) 20:19:57 436.750
BRITE-PL 31 Mar 20:17:33 20:22:11 59° 76° (ENE) 20:26:32 437.365/2234.400
BEESAT 2 31 Mar 20:25:53 20:28:18 15° 250° (WSW) 20:30:32 435.950
COMPASS 1 31 Mar 20:26:01 20:29:17 23° 71° (ENE) 20:32:40 437.405
DOVE 4 31 Mar 20:27:55 20:31:37 29° 73° (ENE) 20:35:17 437.250
GONETS M04 31 Mar 20:37:49 20:45:51 39° 286° (WNW) 20:53:50
Oscar 11 31 Mar 20:42:47 20:45:06 15° 69° (ENE) 20:47:36 145.826/435.025
GOMX 1 31 Mar 20:50:57 20:55:28 89° 78° (ENE) 20:59:45 467.674
CUSAT 1 31 Mar 20:52:30 20:55:23 81° 278° (W) 20:58:00 437.405
DELFI C3 31 Mar 20:56:22 20:58:37 15° 70° (ENE) 21:01:02 145.870
FUNcube-1 31 Mar 21:00:36 21:01:00 10° 67° (ENE) 21:01:40 145.935
CANX-2 31 Mar 21:03:25 21:07:38 71° 260° (W) 21:11:53 2200.000
UWE-3 31 Mar 21:09:31 21:12:14 18° 70° (ENE) 21:15:06 435.000/436.395/437.385
ZACube-1 31 Mar 21:12:30 21:14:50 15° 69° (ENE) 21:17:22 437.345
HO-68 31 Mar 21:12:57 21:20:04 66° 258° (WSW) 21:27:13 435.675
CUTE 1.7 + AOD 2 31 Mar 21:17:03 21:21:11 52° 261° (W) 21:25:21 437.475
CUBEBUG 2 31 Mar 21:19:18 21:22:50 28° 72° (ENE) 21:26:27 437.445
ISS 31 Mar 21:24:08 21:27:21 64° 135° (SE) 21:30:35 145.825
CINEMA 3 31 Mar 21:24:35 21:28:45 69° 77° (ENE) 21:32:52 145.822/145.860
AAUSAT CUBESAT 2 31 Mar 21:31:14 21:35:21 63° 260° (W) 21:39:31 437.432
HUMSAT D 31 Mar 21:41:58 21:44:26 16° 70° (ENE) 21:47:04 437.325/437.525
SEEDS 31 Mar 21:42:46 21:46:31 31° 263° (W) 21:50:16 437.485
